Regional Weather Roundup
Issued by NWS Wakefield, VA

Home | Current Version | Previous Version | Text Only | Print | Product List | Glossary On
Versions: 1 2 3 4 5 6 7 8 9 10 11 12 13 14 15 16 17 18 19 20 21 22 23 24 25 26 27 28 29 30 31 32 33 34 35 36 37 38 39 40 41 42 43 44 45 46 47 48 49 50
000
ASUS41 KAKQ 300514
RWRAKQ

REGIONAL WEATHER ROUNDUP
NATIONAL WEATHER SERVICE WAKEFIELD VA
100 AM EDT MON MAR 30 2015

Note: "fair" indicates few or no clouds below 12,000 feet with no
significant weather and/or obstructions to visibility. * = Denotes
station may not report precipitation (e.g., rain,snow,etc.),
thunder or fog.

VAZ042-051-052>054-056-300600-
NORTHERN VIRGINIA

CITY           SKY/WX    TMP DP  RH WIND       PRES   REMARKS
WASH NATIONAL  CLOUDY    44  20  38 S14       30.10F
DULLES         CLOUDY    43  10  26 S13       30.07F
FORT BELVOIR   CLOUDY    42  12  30 SE8       30.09F
QUANTICO       CLOUDY    45  24  43 S17       30.11F
FREDERICKSBRG* LGT RAIN  44  14  30 SE8       30.10F
STAFFORD*      FLURRIES  41   9  26 S7        30.14F
WARRENTON      CLOUDY    44  21  40 S8        30.08F
CULPEPER*      CLOUDY    45  12  26 S7        30.08F
MANASSAS*      CLOUDY    43  14  31 S10G16    30.08F
LEESBURG*      CLOUDY    43  18  36 S8        30.07F
WINCHESTER     CLOUDY    43   1  17 S9        30.01F
FRONT ROYAL*   CLOUDY    43  12  28 S6        30.00F
LURAY*         FAIR      45  14  29 SW7       30.03R
$$

VAZ048-049-060>072-079>083-300600-
CENTRAL AND SOUTH CENTRAL VIRGINIA

CITY           SKY/WX    TMP DP  RH WIND       PRES   REMARKS
RICHMOND       CLOUDY    41  16  36 S9        30.17F
CHESTERFIELD*  NOT AVBL
PETERSBURG*    CLOUDY    39  15  37 S3        30.18F
HANOVER        CLOUDY    43  12  28 S12       30.16F
TAPPAHANNOCK*  CLOUDY    38  12  33 S6        30.17F
QUINTON*       FAIR      39  18  41 S3        30.17F
CHARLOTTSVILLE CLOUDY    43  12  28 S13       30.07F
GORDONSVILLE*  MOCLDY    42  14  31 SW8       30.08F
ORANGE*        CLOUDY    45  12  26 S8        30.09F
LOUISA*        CLOUDY    45  12  26 S9        30.07F
BUMPASS*       CLOUDY    42  12  30 MISG      30.12F
FARMVILLE*     CLOUDY    46  15  28 S10       30.11F
CREWE*         FAIR      42  13  30 MISG      30.15S
FORT PICKETT*  FAIR      41  15  35 S9        30.16F
CHASE CITY*    FAIR      45  19  35 SW5       30.17S
CLARKSVILLE*   FAIR      41  18  38 S10       30.16F
SOUTH HILL*    MOCLDY    39  17  40 S12       30.23F
LAWRENCEVILLE* FAIR      38  18  44 S6        30.18F
EMPORIA*       PTCLDY    36  21  55 SE6       30.22F
$$

VAZ088>098-300600-
SOUTHEAST VIRGINIA

CITY           SKY/WX    TMP DP  RH WIND       PRES   REMARKS
NORFOLK        CLEAR     36  22  56 S8        30.23S
VIRGINIA BEACH MOCLDY    39  27  62 S8        30.23F
NORFOLK NAVAL  MOCLDY    43  19  38 S7        30.23F
WEST POINT*    MOCLDY    42  15  33 S7        30.21F
SALUDA*        FAIR      39  20  46 S8        30.18F
NEWPORT NEWS   MOCLDY    44  19  36 S9        30.21F
LANGLEY AFB    CLOUDY    39  21  48 SW6       30.21F
FORT EUSTIS    CLOUDY    42  22  45 SW9       30.19F
WILLIAMSBURG*  MOCLDY    43  23  45 S8        30.21F
HR EXEC AP*    FAIR      37  19  48 S6        30.23F
FRANKLIN*      MOCLDY    38  20  48 S10       30.22F
WAKEFIELD      MOCLDY    40  19  43 S6        30.21
$$

VAZ020-022-025-037-045-300600-
WEST CENTRAL AND SOUTHWEST VIRGINIA

CITY           SKY/WX    TMP DP  RH WIND       PRES   REMARKS
STAUNTON*      MOCLDY    43  11  26 S5        30.05S
WAYNESBORO*    FAIR      42  11  28 CALM      30.03F
HOT SPRINGS VA PTCLDY    37   8  31 SW17      29.96F
LYNCHBURG      MOCLDY    42  14  32 S13       30.11F
DANVILLE       MOCLDY    45  17  32 SW9       30.17S
SOUTH BOSTON*  FAIR      44  11  26 SW6       30.17R
MARTINSVILLE   PTCLDY    42  16  35 SE5       30.15F
ROANOKE        PTCLDY    44  12  27 CALM      30.08F
BLACKSBURG     PTCLDY    36  14  40 SW3       30.08F
DUBLIN*        PTCLDY    41  16  36 SW8       30.07F
MARION*        PTCLDY    35  17  47 CALM      30.08F
HILLSVILLE*    PTCLDY    39  14  35 S10G20    30.06F
RICHLANDS*     MOCLDY    47 -18   6 W13G21    30.04S
WISE*          CLOUDY    48  19  32 SW22G29   30.05S
ABINGDON*      CLOUDY    46  17  31 N5        30.08S
$$

MDZ021>025-VAZ099-100-300600-
SOUTHERN MARYLAND AND THE DELMARVA PENINSULA

CITY           SKY/WX    TMP DP  RH WIND       PRES   REMARKS
PATUXENT RIVER CLOUDY    39  21  48 S10       30.15F
BAY BRIDGE APT   N/A     37  27  65 S13       30.13F
LEONARDTOWN    CLOUDY    37  21  52 S5        30.16F
DOVER          CLOUDY    34  17  48 S8        30.15F
GEORGETOWN     MOCLDY    32  16  51 S10       30.19S WCI  24
EASTON         CLOUDY    39  25  57 S10       30.18F
CAMBRIDGE      CLOUDY    37  28  70 S8        30.15F
SALISBURY      PTCLDY    32  20  61 S9        30.19F
OCEAN CITY     PTCLDY    37  22  54 SW10      30.20F
WALLOPS ISLAND PTCLDY    37  28  70 SW13      30.22F
ACCOMACK*      CLEAR     36  27  69 S7        30.21S
$$

NCZ012>017-030>032-300600-
NORTH CENTRAL AND EASTERN NORTH CAROLINA

CITY           SKY/WX    TMP DP  RH WIND       PRES   REMARKS
ROANOKE RAPIDS FAIR      37  19  48 S9        30.21F
RALEIGH        PTCLDY    42  17  36 SW12      30.20F
ELIZABETH CITY CLEAR     37  24  59 S6        30.25F
AHOSKIE*       MOCLDY    34  20  58 S5        30.23F
EDENTON*       CLEAR     40  27  58 S9        30.25F
CURRITUCK*     CLEAR     34  28  79 CALM      30.26S
KILL DEVIL HLS CLEAR     37  32  80 S3        30.25F
MANTEO         CLEAR     42  28  57 SW13      30.27S
CAPE HATTERAS  CLEAR     41  26  55 W7        30.28F
TARBORO*       FAIR      39  22  50 S5        30.25F
GOLDSBORO      CLEAR     38  25  59 SE5       30.24F
WASHINGTON     CLEAR     38  20  48 S3        30.27S
GREENVILLE     CLEAR     37  23  56 S7        30.26F
NEW BERN       CLEAR     37  28  70 SW7       30.29F
WILMINGTON     CLEAR     35  31  85 S5        30.30F
$$

VAZ048-300600-
ELSEWHERE

CITY           SKY/WX    TMP DP  RH WIND       PRES   REMARKS
HARRISBURG PA  CLOUDY    40  11  30 S9        30.03F
BALTIMORE      CLOUDY    38  13  35 VRB3      30.09F
ANNAPOLIS      CLOUDY    38  25  59 S10       30.11F
ANDREWS AFB    CLOUDY    38  17  41 S12       30.09F
PHILADELPHIA   CLOUDY    37  15  40 S7        30.14F
HENDERSON NC   CLEAR     38  14  37 S8        30.18F
GREENSBORO     PTCLDY    42  17  36 SW13      30.16F
ROCKY MOUNT    PTCLDY    38  21  50 S7        30.23F
$$

VAZ100-300600-
MARINE

STATION/POSITION TIME  TEMP    WIND        PRES    WAVE   SWELL
                       AIR SEA DIR/SP/G            HT/PER HT/PER
                 (UTC) (F)     (DEG/KT/KT) (MB)    (FT/S) (FT/S)
BRANDYWINE LGT   0412   37 39  210/ 16/ 19 1021.7F
CAPE MAY NJ      0400   38 43  190/  7/  9 1021.7F
LEWES DE         0400   34 41  200/  5/  9 1022.0F
15NM E FENWICK I 0450   39 39              1022.1F   3/ 9
OCEAN-CITY-INLET 0412   39 40  220/ 12/ 14 1022.4F
WACHAPREAGUE VA  0400   38 45  210/ 10/ 13 1023.4F
THOMAS POINT MD  0500                        N/A
COVE POINT MD    0400   37     200/ 13/ 15 1021.8F
SOLOMONS ISLAND  0400      43                N/A
BISHOPS HEAD MD  0418          180/ 14/ 15 1021.9F
PINEY POINT MD   0424          200/ 10/ 11   N/A
CAMBRIDGE MD     0400   38 43  180/  7/ 11 1021.9F
LEWISETTA VA     0406   38 43              1022.2F
RAPPAHANNOCK LGT 0400          160/ 16/ 16 1023.4F
STINGRAY PT      0500   41 44  190/ 12/ 14   N/A     2/ 3
YORK RVR RNG VA  0400   41     190/ 15/ 17 1022.5F
YORKTOWN VA      0400   40 46  200/  5/  8 1022.8F
DOMINION TERM VA 0400   40     190/ 10/ 12 1023.6F
KIPTOPEKE VA     0406      48  190/ 17/ 18   N/A
CHES BAY BRIDGE  0406   38 43  160/ 12/ 14 1023.2F
CAPE HENRY VA    0400   36     170/  8/ 11 1022.5F
CHESAPEAKE LGHT  0400   38     180/ 17/ 18 1024.4F
WILLOUBY STN VA  0406   40     190/ 13/ 14 1023.8F
S CRANEY ISL VA  0400          180/  9/ 12 1023.8F
CAPE HENRY BUOY  0428      40                N/A     3/ 9   2/11
1ST LANDING BUOY 0500   40     200/ 14/ 16 1023.1F   1/ 3
OFFSHORE WE BUOY 0411      41                N/A     4/ 9   3/ 9
64NM E OF VA BCH 0450   44 54  230/ 14/ 16 1023.7F   5/ 9   5/ 9
DUCK PIER NC     0400   38 43  170/  9/ 10 1023.9F
44056 DUCK FRF   0411      42                N/A     4/10   2/11
OREGON INLET NC  0400   37 44  150/  5/  9 1025.1F
HATTERAS NC      0406   43 50  220/  4/  6 1025.7F
CAPE LOOKOUT NC  0500   46     220/  7/ 10 1025.4F
$$


USA.gov is the U.S. government's official web portal to all federal, state and local government web resources and services.